Regional Weather Roundup
Issued by NWS Boston, MA

Current Version | Previous Version | Text Only | Print | Product List | Glossary Off
Versions: 1 2 3 4 5 6 7 8 9 10 11 12 13 14 15 16 17 18 19 20 21 22 23 24 25 26 27
000 ASUS41 KBOX 271710 RWRBOX REGIONAL WEATHER ROUNDUP NATIONAL WEATHER SERVICE TAUNTON MA 100 PM EDT SAT MAY 27 2017 NOTE: "FAIR" INDICATES FEW OR NO CLOUDS BELOW 12,000 FEET WITH NO SIGNIFICANT WEATHER AND/OR OBSTRUCTIONS TO VISIBILITY. MAZALL-271800- EASTERN MASSACHUSETTS CITY SKY/WX TMP DP RH WIND PRES REMARKS BOSTON MOSUNNY 58 51 78 E13 29.88R BEVERLY SUNNY 66 53 63 VRB7 29.86R LAWRENCE MOSUNNY 69 53 56 E10 29.87S BEDFORD PTSUNNY 67 49 52 CALM 29.85R BLUE HILL N/A 63 50 62 MISG 29.86R NORWOOD PTSUNNY 66 52 60 NE6 29.85S MARSHFIELD SUNNY 59 50 72 NE8 29.88R PLYMOUTH SUNNY 63 48 58 NE10 29.88R TAUNTON CLOUDY 66 50 56 N5 29.86R NEW BEDFORD CLOUDY 62 53 72 VRB3 29.86R $$ MAZALL-271800- CAPE COD AND THE ISLANDS CITY SKY/WX TMP DP RH WIND PRES REMARKS FALMOUTH PTSUNNY 61 48 63 MISG 29.88R HYANNIS MOSUNNY 61 51 70 NE12G17 29.86R CHATHAM CLOUDY 55 50 83 NE10 29.89R PROVINCETOWN SUNNY 57 50 77 NE12 29.89R NANTUCKET PTSUNNY 61 48 62 NW9 29.88R MARTHAS VNYRD CLOUDY 60 51 72 SE3 29.87R $$ MAZALL-271800- CENTRAL AND WESTERN MASSACHUSETTS CITY SKY/WX TMP DP RH WIND PRES REMARKS WORCESTER MOSUNNY 65 45 48 VRB7 29.87S FITCHBURG SUNNY 69 49 48 NE5 29.86S ORANGE PTSUNNY 65 49 56 CALM 29.86S SPRINGFIELD PTSUNNY 64 49 57 VRB3 29.86S WESTFIELD MOSUNNY 65 50 58 CALM 29.87F NORTH ADAMS SUNNY 65 51 60 CALM 29.88S $$ RIZALL-271800- RHODE ISLAND CITY SKY/WX TMP DP RH WIND PRES REMARKS PROVIDENCE PTSUNNY 66 51 58 NW5 29.87S NEWPORT CLOUDY 63 52 67 VRB7 29.87S BLOCK ISLAND CLOUDY 62 50 64 NW8 29.89R SMITHFIELD PTSUNNY 64 51 62 NE6 29.87S WESTERLY CLOUDY 65 50 58 CALM 29.89R $$ CTZALL-271800- CONNECTICUT CITY SKY/WX TMP DP RH WIND PRES REMARKS BRADLEY INTL PTSUNNY 65 48 54 VRB6 29.89R HARTFORD PTSUNNY 64 49 57 NE6 29.88S BRIDGEPORT CLOUDY 65 52 62 SE10 29.88R DANBURY PTSUNNY 67 54 63 VRB6 29.89S GROTON CLOUDY 63 49 60 N8 29.88R NEW HAVEN CLOUDY 62 55 77 S10 29.88R CHESTER CLOUDY 63 48 59 NW8 29.89S MERIDEN PTSUNNY 67 51 56 VRB7 29.88S WILLIMANTIC PTSUNNY 65 50 58 VRB3 29.88S OXFORD PTSUNNY 64 46 52 N9 29.89R $$ MEZ002-015-021-024-NHZ003-005-008-011-012-014-VTZ005-008-271800- NORTHERN NEW ENGLAND CITY SKY/WX TMP DP RH WIND PRES REMARKS PORTLAND ME MOSUNNY 62 48 60 E8 29.86S BANGOR ME CLOUDY 58 46 64 N13 29.86R CONCORD NH MOSUNNY 71 48 43 NE7 29.84F MANCHESTER NH PTSUNNY 68 46 45 N6 29.84S NASHUA NH PTSUNNY 68 49 50 CALM 29.86S PORTSMOUTH NH MOSUNNY 61 49 65 E9 29.85S JAFFREY NH MOSUNNY 67 48 50 VRB3 29.87S KEENE NH PTSUNNY 66 49 54 CALM 29.87S BURLINGTON VT MOSUNNY 68 47 46 W9 29.88F MT. WASHINGTON FOG 37 37 100 N17 N/A VSB 1/16WCI 28 $$ NYZ052-076-271800- EASTERN NEW YORK CITY SKY/WX TMP DP RH WIND PRES REMARKS ALBANY PTSUNNY 66 50 56 N8 29.90S NEW YORK CITY PTSUNNY 72 53 51 VRB3 29.86S $$ ANZALL-271800- MARINE OBSERVATIONS STATION/POSITION TIME TEMP WIND PRES VSBY WAVE AIR SEA DIR/SP/G HT/PER (UTC) (F) (DEG/KT/KT) (MB) (MI) (FT/S) BOSTON BUOY 1550 53 54 50/ 10/ 12 1010.8 2/ 8 BUZZARDS BAY 1600 55 140/ 3/ 3 1012.0R NANTUCKET SOUND 1650 56 1011.5R 1/ 4 MASS BAY-STELLWA 1604 52 51 60/ 6/ 8 1010.6F 2/ 7 ISLE OF SHOALS 1600 51 100/ 12/ 12 1010.8F S OF BLOCK IS 1655 56 N/A 4/ 8 $$ ......................KEY......................... SKY/WX - SKY CONDITION/PRESENT WEATHER TMP - TEMPERATURE IN FAHRENHEIT DWPT - DEWPOINT IN FAHRENHEIT RH - RELATIVE HUMIDITY IN PERCENT WIND - DIRECTION AND SPEED IN MPH PRES - MEAN SEA LEVEL PRESSURE IN INCHES OF HG WCI - WIND CHILL INDEX VSB - VISIBILITY IN MILES HX - HEAT INDEX TC - TEMPERATURE IN CELSIUS VRB - VARIABLE WIND DIRECTION N/A - NOT AVAILABLE

USA.gov is the U.S. government's official web portal to all federal, state and local government web resources and services.